Location: Unspecified
(0.0000°N, 0.0000°E)
Time: 18:57:37
(UTC+00:00)

Courier 1B Rocket - Pass Details

Date: 30 April 2024
Orbit: 920 x 1201 km, 28.2° (Epoch: 19 May)

Event Time Altitude Azimuth Distance (km) Brightness Sun altitude
Rises 20:04:43 0° 244° (WSW) 3,698 8.6 -30.7°
Reaches altitude 10° 20:07:19 10° 246° (WSW) 2,786 7.9 -31.3°
Maximum altitude 20:14:07 73° 330° (NNW) 1,109 5.2 -32.9°
Enters shadow 20:14:08 73° 331° (NNW) 1,109 5.2 -32.9°
